Flag for United Kingdom Weather past 2 weeks in Canvey Island, England, United Kingdom

Now
59 °F

Passing clouds.


Feels Like: 58 °F
Forecast: 40 / 59 °F
Wind: 8 mph from Northeast

Location: Southend Airport-On-Sea

Current Time: Apr 21, 2015 at 12:47:48 PM

Latest Report: Apr 21, 2015 at 12:20 PM


Visibility: N/A

Pressure: 30.54 "Hg

Humidity: 51%

Dew point: 41 °F

Location of Canvey IslandLocation

Historic Weather in Canvey Island — Graph

°F

Canvey Island temperature yesterday

Maximum temperature yesterday: 59 °F (at 12:20 PM)
Minimum temperature yesterday: 36 °F (at 1:20 AM)
Average temperature yesterday: 49 °F

Past Weeks' High & Low Weather Summary

 TemperatureHumidityPressure
High77 °F (Apr 15, 4:20 PM)94% (Apr 9, 11:50 AM)30.66 "Hg (Apr 9, 11:50 AM)
Low30 °F (Apr 7, 5:50 AM)22% (Apr 15, 4:50 PM)29.89 "Hg (Apr 11, 2:50 AM)
Average50 °F70%30.28 "Hg
* Reported Apr 6 11:20 AM — Apr 21 11:20 AM, Canvey Island, Weather by CustomWeather, © 2015

Note: Actual official high and low records may vary slightly from our data, if they occured in-between our weather recording intervals... More about our weather records

Advertising

Canvey Island weather history for previous 24 hours

 ConditionsComfort  
Time TempWeatherWind HumidityBarometerVisibility
11:20 AM
Tue, Apr 21
57 °FPassing clouds.8 mph51%30.57 "HgN/A
10:50 AM55 °FPassing clouds.8 mph59%30.54 "HgN/A
10:20 AM54 °FSunny.10 mph63%30.54 "Hg10 mi
9:50 AM54 °FSunny.10 mph58%30.54 "Hg10 mi
9:20 AM52 °FPassing clouds.8 mph62%30.54 "HgN/A
8:50 AM48 °FPassing clouds.7 mph71%30.54 "HgN/A
8:20 AM46 °FPassing clouds.6 mph76%30.54 "HgN/A
7:50 AM45 °FPassing clouds.6 mph81%30.54 "HgN/A
7:20 AM43 °FSunny.6 mph81%30.54 "Hg10 mi
6:50 AM41 °FSunny.6 mph81%30.51 "Hg10 mi
6:20 AM39 °FClear.5 mph81%30.51 "Hg10 mi
5:50 AM37 °FClear.5 mph87%30.51 "Hg10 mi
5:20 AM39 °FClear.5 mph81%30.51 "Hg10 mi
3:20 AM39 °FClear.5 mph87%30.51 "Hg10 mi
2:50 AM39 °FClear.5 mph81%30.51 "Hg10 mi
1:50 AM39 °FClear.8 mph81%30.51 "Hg10 mi
12:50 AM41 °FClear.5 mph76%30.48 "Hg10 mi
12:20 AM41 °FClear.5 mph81%30.48 "Hg10 mi
11:50 PM
Mon, Apr 20
41 °FClear.7 mph81%30.48 "Hg10 mi
11:20 PM41 °FClear.6 mph81%30.48 "Hg10 mi
10:50 PM43 °FClear.7 mph76%30.48 "Hg10 mi
10:20 PM43 °FClear.9 mph76%30.48 "Hg10 mi
9:50 PM45 °FClear.6 mph71%30.48 "Hg10 mi
9:20 PM43 °FClear.8 mph76%30.48 "Hg10 mi
8:50 PM45 °FSunny.9 mph76%30.48 "Hg10 mi
8:20 PM46 °FSunny.10 mph76%30.45 "Hg10 mi
7:50 PM48 °FSunny.10 mph71%30.45 "Hg10 mi
7:20 PM50 °FSunny.10 mph62%30.45 "Hg10 mi
6:50 PM52 °FSunny.13 mph62%30.45 "Hg10 mi
6:20 PM52 °FSunny.15 mph62%30.45 "Hg10 mi
5:50 PM54 °FSunny.14 mph58%30.45 "Hg10 mi
5:20 PM54 °FSunny.16 mph63%30.45 "Hg10 mi
4:50 PM55 °FSunny.16 mph51%30.42 "Hg10 mi
4:20 PM57 °FSunny.16 mph55%30.42 "Hg10 mi
3:50 PM59 °FSunny.15 mph48%30.42 "Hg10 mi
3:20 PM59 °FSunny.13 mph48%30.42 "Hg10 mi
2:50 PM59 °FSunny.13 mph48%30.45 "Hg10 mi
2:20 PM59 °FSunny.14 mph51%30.45 "Hg10 mi
1:50 PM59 °FSunny.14 mph48%30.45 "Hg10 mi
1:20 PM59 °FPassing clouds.15 mph48%30.42 "HgN/A
12:50 PM59 °FSunny.14 mph48%30.42 "Hg10 mi
12:20 PM59 °FSunny.16 mph51%30.42 "Hg10 mi
Weather by CustomWeather, © 2015

See weather overviewHow to use our weather pages